This demonstration page uses our WeatherBlox Daily Observations layout. Learn more.

Left ArrowRight Arrow

30.21309, -93.2044

Hourly Observations for October 31, 2015

Temp ( °F °C ) Dew Point ( °F °C ) Humidity (%) Winds ( mph kmh ) Pressure ( in mb ) Visibility ( mi km ) Precip ( " mm )
12:15 am 00:15 Cloudy 73 22.6 69 20.6 89 89 SE 10 17 29.80 1009 10 16 0.00 0.00
12:35 am 00:35 Cloudy 73 22.7 69 20.8 89 89 ESE 12 19 29.80 1009 10 16 0.00 0.00
12:55 am 00:55 Cloudy 73 22.7 70 21 90 90 ESE 10 17 29.80 1009 10 16 0.00 0.00
1:15 am 01:15 Cloudy 73 23 70 21.2 90 90 ESE 12 19 29.80 1009 10 16 0.00 0.00
1:35 am 01:35 Cloudy 74 23.4 71 21.4 89 89 ESE 13 20 29.77 1008 10 16 0.00 0.00
1:55 am 01:55 Cloudy 74 23.5 71 21.5 89 89 SE 15 24 29.77 1008 10 16 0.00 0.00
2:15 am 02:15 Cloudy 74 23.6 71 21.6 89 89 SE 15 24 29.77 1008 10 16 0.00 0.00
2:35 am 02:35 Mostly Cloudy with Light Rain 75 23.7 71 21.7 89 89 SSE 16 26 29.77 1008 10 16 0.00 0.00
2:55 am 02:55 Cloudy with Light Rain 75 23.7 71 21.6 88 88 SSE 9 15 29.80 1009 10 16 0.00 0.00
3:15 am 03:15 Cloudy 75 23.7 71 21.6 88 88 SE 8 13 29.77 1008 10 16 0.00 0.00
3:35 am 03:35 Cloudy with Rain 74 23.5 71 21.7 90 90 SE 13 20 29.77 1008 10 16 0.00 0.00
3:55 am 03:55 Cloudy with Heavy Rain 73 22.8 72 22 95 95 SE 10 17 29.77 1008 4 6 0.08 2.03
4:15 am 04:15 Cloudy with Rain 73 22.7 72 22 96 96 SSE 13 20 29.77 1008 5 8 0.05 1.27
4:35 am 04:35 Cloudy with Heavy Rain 73 22.6 72 22 96 96 SSE 8 13 29.77 1008 4 6 0.17 4.32
4:55 am 04:55 Cloudy with Rain 73 22.5 72 22 97 97 SE 12 19 29.74 1007 5 8 0.21 5.33
5:15 am 05:15 Cloudy 73 22.5 72 22.1 98 98 ESE 10 17 29.74 1007 7 11 0.00 0.00
6:00 am 06:00 Cloudy with Drizzle 73 23 72 22 94 94 SE 12 19 29.74 1007 7 11 0.00 0.00
6:50 am 06:50 Cloudy 73 23 73 23 100 100 SSE 14 22 29.74 1007 7 11 0.00 0.00
7:50 am 07:50 Cloudy 75 24 73 23 94 94 SSE 15 24 29.74 1007 7 11 0.00 0.00
8:50 am 08:50 Mostly Cloudy 77 25 73 23 89 89 S 20 31 29.74 1007 7 11 0.00 0.00
9:50 am 09:50 Cloudy 79 26 75 24 89 89 S 17 28 29.77 1008 7 11 0.00 0.00
10:50 am 10:50 Cloudy with Heavy Rain 66 19 66 19 100 100 NW 20 31 29.74 1007 1 2 0.00 0.00
11:50 am 11:50 Cloudy with Light Rain 66 19 64 18 94 94 NNW 7 11 29.83 1010 4 6 0.00 0.00
12:45 pm 12:45 Cloudy with Thunderstorms 66 19 64 18 94 94 NNE 7 11 29.83 1010 4 6 0.00 0.00
1:45 pm 13:45 Cloudy with Thunderstorms 66 19 64 18 94 94 NE 12 19 29.77 1008 2 3 0.00 0.00
2:50 pm 14:50 Cloudy with Thunderstorms 66 19 66 19 100 100 ENE 5 7 29.77 1008 2 3 0.00 0.00
3:50 pm 15:50 Cloudy with Thunderstorms 66 19 66 19 100 100 E 7 11 29.74 1007 5 8 0.00 0.00
4:50 pm 16:50 Cloudy with Thunderstorms 66 19 66 19 100 100 ENE 8 13 29.74 1007 3 5 0.00 0.00
5:50 pm 17:50 Cloudy with Heavy Rain 66 19 66 19 100 100 ESE 5 7 29.80 1009 3 5 0.00 0.00
6:50 pm 18:50 Cloudy with Rain 66 19 66 19 100 100 E 8 13 29.77 1008 5 8 0.00 0.00
7:50 pm 19:50 Cloudy with Rain 68 20 66 19 94 94 Calm 29.83 1010 7 11 0.00 0.00
8:50 pm 20:50 Cloudy with Rain 68 20 68 20 100 100 Calm 29.85 1011 7 11 0.00 0.00
9:50 pm 21:50 Cloudy with Rain 68 20 68 20 100 100 SE 8 13 29.85 1011 7 11 0.00 0.00
10:15 pm 22:15 Cloudy with Light Rain 68 20.1 68 20 99 99 E 6 9 29.85 1011 10 16 0.02 0.51

Powered by AerisWeather